Multibeam Report for MV1204


Ship Name: Melville
Chief Scientist: None
Scripps Institution of Oceanography
Source Organization: UNOLS R2R
Start Date: 2012-04-03
End Date: 2012-04-18


View ISO Metadata

Visit the full NCEI Bathymetry Viewer


Multibeam Bathymetry

Cruise Details

Project: Transit
Instrument: Kongsberg EM122

Data Quality

Number of Files: 697
Number of Records: 233677
BATHYMETRY DATA Quantity Percentage
Number of Beams 100948464 100%
Number of Good Beams 86231782 85.42%
Number of Zero Beams 0 0%
Number of Flagged Beams 14716682 14.58%

Navigation Totals

Total Time: 326.5635 hours
Total Track Length: 6648.0988 km
Average Speed: 20.358 km/hr (10.9924 knots)

Cruise Bounds

Northern Extent: -33.961807
Southern Extent: -54.61617
Western Extent: -68.217354
Eastern Extent: 18.243677

Limits

Minimum Sonar Depth 0 Maximum Sonar Depth 12.0034
Minimum Altitude 122.1197 Maximum Altitude 7740.1587
Minimum Depth 88.0226 Maximum Depth 7766.7041

File Information

Full Resolution Bathymetry as collected (raw): 694

Files File Size Description
0000_20120403_084201_melville.all.mb58.gz 13.33MB Kongsberg multibeam vendor format
0001_20120403_091150_melville.all.mb58.gz 46.22MB Kongsberg multibeam vendor format
0002_20120403_094147_melville.all.mb58.gz 64.15MB Kongsberg multibeam vendor format
0003_20120403_101147_melville.all.mb58.gz 93.66MB Kongsberg multibeam vendor format
0004_20120403_104148_melville.all.mb58.gz 80.87MB Kongsberg multibeam vendor format
0005_20120403_111147_melville.all.mb58.gz 70.77MB Kongsberg multibeam vendor format
0006_20120403_114148_melville.all.mb58.gz 54.86MB Kongsberg multibeam vendor format
0007_20120403_121153_melville.all.mb58.gz 47.11MB Kongsberg multibeam vendor format
0008_20120403_124152_melville.all.mb58.gz 43.22MB Kongsberg multibeam vendor format
0009_20120403_131150_melville.all.mb58.gz 25.66MB Kongsberg multibeam vendor format
0010_20120403_134152_melville.all.mb58.gz 21.80MB Kongsberg multibeam vendor format
0011_20120403_141159_melville.all.mb58.gz 14.26MB Kongsberg multibeam vendor format
0012_20120403_144159_melville.all.mb58.gz 15.64MB Kongsberg multibeam vendor format
0013_20120403_151156_melville.all.mb58.gz 29.16MB Kongsberg multibeam vendor format
0014_20120403_154151_melville.all.mb58.gz 28.86MB Kongsberg multibeam vendor format
0015_20120403_161147_melville.all.mb58.gz 28.73MB Kongsberg multibeam vendor format
0016_20120403_164156_melville.all.mb58.gz 28.12MB Kongsberg multibeam vendor format
0017_20120403_171203_melville.all.mb58.gz 27.74MB Kongsberg multibeam vendor format
0018_20120403_174206_melville.all.mb58.gz 27.28MB Kongsberg multibeam vendor format
0019_20120403_181151_melville.all.mb58.gz 27.27MB Kongsberg multibeam vendor format
0020_20120403_184147_melville.all.mb58.gz 27.34MB Kongsberg multibeam vendor format
0021_20120403_191158_melville.all.mb58.gz 27.14MB Kongsberg multibeam vendor format
0022_20120403_194200_melville.all.mb58.gz 27.05MB Kongsberg multibeam vendor format
0023_20120403_201202_melville.all.mb58.gz 27.06MB Kongsberg multibeam vendor format
0024_20120403_204210_melville.all.mb58.gz 26.92MB Kongsberg multibeam vendor format
0025_20120403_211210_melville.all.mb58.gz 26.77MB Kongsberg multibeam vendor format
0026_20120403_214206_melville.all.mb58.gz 26.58MB Kongsberg multibeam vendor format
0027_20120403_221154_melville.all.mb58.gz 26.70MB Kongsberg multibeam vendor format
0028_20120403_224150_melville.all.mb58.gz 26.85MB Kongsberg multibeam vendor format
0029_20120403_231158_melville.all.mb58.gz 26.60MB Kongsberg multibeam vendor format
0030_20120403_234150_melville.all.mb58.gz 26.75MB Kongsberg multibeam vendor format
0031_20120404_001154_melville.all.mb58.gz 26.76MB Kongsberg multibeam vendor format
0032_20120404_004159_melville.all.mb58.gz 26.56MB Kongsberg multibeam vendor format
0033_20120404_011155_melville.all.mb58.gz 26.52MB Kongsberg multibeam vendor format
0034_20120404_014147_melville.all.mb58.gz 26.61MB Kongsberg multibeam vendor format
0035_20120404_021148_melville.all.mb58.gz 26.63MB Kongsberg multibeam vendor format
0036_20120404_024151_melville.all.mb58.gz 26.62MB Kongsberg multibeam vendor format
0037_20120404_031154_melville.all.mb58.gz 26.51MB Kongsberg multibeam vendor format
0038_20120404_034147_melville.all.mb58.gz 26.55MB Kongsberg multibeam vendor format
0039_20120404_041148_melville.all.mb58.gz 26.29MB Kongsberg multibeam vendor format
0040_20120404_044156_melville.all.mb58.gz 26.52MB Kongsberg multibeam vendor format
0041_20120404_051206_melville.all.mb58.gz 26.19MB Kongsberg multibeam vendor format
0042_20120404_054149_melville.all.mb58.gz 26.64MB Kongsberg multibeam vendor format
0043_20120404_061155_melville.all.mb58.gz 26.62MB Kongsberg multibeam vendor format
0044_20120404_064202_melville.all.mb58.gz 26.35MB Kongsberg multibeam vendor format
0045_20120404_071150_melville.all.mb58.gz 26.75MB Kongsberg multibeam vendor format
0046_20120404_074208_melville.all.mb58.gz 26.40MB Kongsberg multibeam vendor format
0047_20120404_081157_melville.all.mb58.gz 26.39MB Kongsberg multibeam vendor format
0048_20120404_084146_melville.all.mb58.gz 26.67MB Kongsberg multibeam vendor format
0049_20120404_091202_melville.all.mb58.gz 26.47MB Kongsberg multibeam vendor format
0050_20120404_094207_melville.all.mb58.gz 26.01MB Kongsberg multibeam vendor format
0051_20120404_101150_melville.all.mb58.gz 26.68MB Kongsberg multibeam vendor format
0052_20120404_104208_melville.all.mb58.gz 26.50MB Kongsberg multibeam vendor format
0053_20120404_111210_melville.all.mb58.gz 26.13MB Kongsberg multibeam vendor format
0054_20120404_114155_melville.all.mb58.gz 26.54MB Kongsberg multibeam vendor format
0055_20120404_121203_melville.all.mb58.gz 26.23MB Kongsberg multibeam vendor format
0056_20120404_124157_melville.all.mb58.gz 15.59MB Kongsberg multibeam vendor format
0057_20120404_131211_melville.all.mb58.gz 23.83MB Kongsberg multibeam vendor format
0058_20120404_134150_melville.all.mb58.gz 26.34MB Kongsberg multibeam vendor format
0059_20120404_141155_melville.all.mb58.gz 26.45MB Kongsberg multibeam vendor format
0060_20120404_144200_melville.all.mb58.gz 26.36MB Kongsberg multibeam vendor format
0061_20120404_151201_melville.all.mb58.gz 26.17MB Kongsberg multibeam vendor format
0062_20120404_154150_melville.all.mb58.gz 26.61MB Kongsberg multibeam vendor format
0063_20120404_161210_melville.all.mb58.gz 26.05MB Kongsberg multibeam vendor format
0064_20120404_164204_melville.all.mb58.gz 26.22MB Kongsberg multibeam vendor format
0065_20120404_171201_melville.all.mb58.gz 26.24MB Kongsberg multibeam vendor format
0066_20120404_174206_melville.all.mb58.gz 25.93MB Kongsberg multibeam vendor format
0067_20120404_181146_melville.all.mb58.gz 26.30MB Kongsberg multibeam vendor format
0068_20120404_184157_melville.all.mb58.gz 26.01MB Kongsberg multibeam vendor format
0069_20120404_191153_melville.all.mb58.gz 25.94MB Kongsberg multibeam vendor format
0070_20120404_194153_melville.all.mb58.gz 26.02MB Kongsberg multibeam vendor format
0071_20120404_201156_melville.all.mb58.gz 26.17MB Kongsberg multibeam vendor format
0072_20120404_204202_melville.all.mb58.gz 26.06MB Kongsberg multibeam vendor format
0073_20120404_211154_melville.all.mb58.gz 26.31MB Kongsberg multibeam vendor format
0074_20120404_214208_melville.all.mb58.gz 25.84MB Kongsberg multibeam vendor format
0075_20120404_221146_melville.all.mb58.gz 26.28MB Kongsberg multibeam vendor format
0076_20120404_224200_melville.all.mb58.gz 26.04MB Kongsberg multibeam vendor format
0077_20120404_231153_melville.all.mb58.gz 26.25MB Kongsberg multibeam vendor format
0078_20120404_234155_melville.all.mb58.gz 26.31MB Kongsberg multibeam vendor format
0079_20120405_001201_melville.all.mb58.gz 26.33MB Kongsberg multibeam vendor format
0080_20120405_004202_melville.all.mb58.gz 26.43MB Kongsberg multibeam vendor format
0081_20120405_011206_melville.all.mb58.gz 26.34MB Kongsberg multibeam vendor format
0082_20120405_014203_melville.all.mb58.gz 26.31MB Kongsberg multibeam vendor format
0083_20120405_021204_melville.all.mb58.gz 26.24MB Kongsberg multibeam vendor format
0084_20120405_024207_melville.all.mb58.gz 26.14MB Kongsberg multibeam vendor format
0085_20120405_031208_melville.all.mb58.gz 26.42MB Kongsberg multibeam vendor format
0086_20120405_034213_melville.all.mb58.gz 26.02MB Kongsberg multibeam vendor format
0087_20120405_041204_melville.all.mb58.gz 25.96MB Kongsberg multibeam vendor format
0088_20120405_044147_melville.all.mb58.gz 26.18MB Kongsberg multibeam vendor format
0089_20120405_051152_melville.all.mb58.gz 26.32MB Kongsberg multibeam vendor format
0090_20120405_054205_melville.all.mb58.gz 26.17MB Kongsberg multibeam vendor format
0091_20120405_061208_melville.all.mb58.gz 25.86MB Kongsberg multibeam vendor format
0092_20120405_064201_melville.all.mb58.gz 25.94MB Kongsberg multibeam vendor format
0093_20120405_071203_melville.all.mb58.gz 25.98MB Kongsberg multibeam vendor format
0094_20120405_074205_melville.all.mb58.gz 26.00MB Kongsberg multibeam vendor format
0095_20120405_081155_melville.all.mb58.gz 25.98MB Kongsberg multibeam vendor format
0096_20120405_084153_melville.all.mb58.gz 26.13MB Kongsberg multibeam vendor format
0097_20120405_091206_melville.all.mb58.gz 25.82MB Kongsberg multibeam vendor format
0098_20120405_094153_melville.all.mb58.gz 25.88MB Kongsberg multibeam vendor format
0099_20120405_101145_melville.all.mb58.gz 26.19MB Kongsberg multibeam vendor format
0100_20120405_104212_melville.all.mb58.gz 25.52MB Kongsberg multibeam vendor format
0101_20120405_111145_melville.all.mb58.gz 18.83MB Kongsberg multibeam vendor format
0102_20120405_114158_melville.all.mb58.gz 25.39MB Kongsberg multibeam vendor format
0103_20120405_121155_melville.all.mb58.gz 25.72MB Kongsberg multibeam vendor format
0104_20120405_124206_melville.all.mb58.gz 25.50MB Kongsberg multibeam vendor format
0105_20120405_131159_melville.all.mb58.gz 25.46MB Kongsberg multibeam vendor format
0106_20120405_134204_melville.all.mb58.gz 25.63MB Kongsberg multibeam vendor format
0107_20120405_141155_melville.all.mb58.gz 25.86MB Kongsberg multibeam vendor format
0108_20120405_144213_melville.all.mb58.gz 25.05MB Kongsberg multibeam vendor format
0109_20120405_151156_melville.all.mb58.gz 25.89MB Kongsberg multibeam vendor format
0110_20120405_154206_melville.all.mb58.gz 25.71MB Kongsberg multibeam vendor format
0111_20120405_161155_melville.all.mb58.gz 25.92MB Kongsberg multibeam vendor format
0112_20120405_164157_melville.all.mb58.gz 25.80MB Kongsberg multibeam vendor format
0113_20120405_171214_melville.all.mb58.gz 25.50MB Kongsberg multibeam vendor format
0114_20120405_174202_melville.all.mb58.gz 25.59MB Kongsberg multibeam vendor format
0115_20120405_181204_melville.all.mb58.gz 25.64MB Kongsberg multibeam vendor format
0116_20120405_184213_melville.all.mb58.gz 25.20MB Kongsberg multibeam vendor format
0117_20120405_191157_melville.all.mb58.gz 25.75MB Kongsberg multibeam vendor format
0118_20120405_194159_melville.all.mb58.gz 25.79MB Kongsberg multibeam vendor format
0119_20120405_201209_melville.all.mb58.gz 25.02MB Kongsberg multibeam vendor format
0120_20120405_204146_melville.all.mb58.gz 25.95MB Kongsberg multibeam vendor format
0121_20120405_211150_melville.all.mb58.gz 26.16MB Kongsberg multibeam vendor format
0122_20120405_214206_melville.all.mb58.gz 25.54MB Kongsberg multibeam vendor format
0123_20120405_221145_melville.all.mb58.gz 26.34MB Kongsberg multibeam vendor format
0124_20120405_224212_melville.all.mb58.gz 25.66MB Kongsberg multibeam vendor format
0125_20120405_231204_melville.all.mb58.gz 25.87MB Kongsberg multibeam vendor format
0126_20120405_234206_melville.all.mb58.gz 25.69MB Kongsberg multibeam vendor format
0127_20120406_001150_melville.all.mb58.gz 26.28MB Kongsberg multibeam vendor format
0128_20120406_004157_melville.all.mb58.gz 25.99MB Kongsberg multibeam vendor format
0129_20120406_011145_melville.all.mb58.gz 26.55MB Kongsberg multibeam vendor format
0130_20120406_014208_melville.all.mb58.gz 26.19MB Kongsberg multibeam vendor format
0131_20120406_021207_melville.all.mb58.gz 25.91MB Kongsberg multibeam vendor format
0132_20120406_024149_melville.all.mb58.gz 26.11MB Kongsberg multibeam vendor format
0133_20120406_031154_melville.all.mb58.gz 25.77MB Kongsberg multibeam vendor format
0134_20120406_034154_melville.all.mb58.gz 25.61MB Kongsberg multibeam vendor format
0135_20120406_041147_melville.all.mb58.gz 25.98MB Kongsberg multibeam vendor format
0136_20120406_044202_melville.all.mb58.gz 25.33MB Kongsberg multibeam vendor format
0137_20120406_051157_melville.all.mb58.gz 24.94MB Kongsberg multibeam vendor format
0138_20120406_054154_melville.all.mb58.gz 24.87MB Kongsberg multibeam vendor format
0139_20120406_061157_melville.all.mb58.gz 24.33MB Kongsberg multibeam vendor format
0140_20120406_064157_melville.all.mb58.gz 25.71MB Kongsberg multibeam vendor format
0141_20120406_071220_melville.all.mb58.gz 24.74MB Kongsberg multibeam vendor format
0142_20120406_074211_melville.all.mb58.gz 25.09MB Kongsberg multibeam vendor format
0143_20120406_081205_melville.all.mb58.gz 25.10MB Kongsberg multibeam vendor format
0144_20120406_084211_melville.all.mb58.gz 25.52MB Kongsberg multibeam vendor format
0145_20120406_091216_melville.all.mb58.gz 25.38MB Kongsberg multibeam vendor format
0146_20120406_094219_melville.all.mb58.gz 24.72MB Kongsberg multibeam vendor format
0147_20120406_101208_melville.all.mb58.gz 24.64MB Kongsberg multibeam vendor format
0148_20120406_104207_melville.all.mb58.gz 25.22MB Kongsberg multibeam vendor format
0149_20120406_111219_melville.all.mb58.gz 25.16MB Kongsberg multibeam vendor format
0150_20120406_114215_melville.all.mb58.gz 24.87MB Kongsberg multibeam vendor format
0151_20120406_121208_melville.all.mb58.gz 24.54MB Kongsberg multibeam vendor format
0152_20120406_124210_melville.all.mb58.gz 25.03MB Kongsberg multibeam vendor format
0153_20120406_131219_melville.all.mb58.gz 25.20MB Kongsberg multibeam vendor format
0154_20120406_134214_melville.all.mb58.gz 24.12MB Kongsberg multibeam vendor format
0155_20120406_141205_melville.all.mb58.gz 25.27MB Kongsberg multibeam vendor format
0156_20120406_144216_melville.all.mb58.gz 24.74MB Kongsberg multibeam vendor format
0157_20120406_151224_melville.all.mb58.gz 24.44MB Kongsberg multibeam vendor format
0158_20120406_154202_melville.all.mb58.gz 25.69MB Kongsberg multibeam vendor format
0159_20120406_161212_melville.all.mb58.gz 31.74MB Kongsberg multibeam vendor format
0160_20120406_164205_melville.all.mb58.gz 45.50MB Kongsberg multibeam vendor format
0161_20120406_171204_melville.all.mb58.gz 40.17MB Kongsberg multibeam vendor format
0162_20120406_174207_melville.all.mb58.gz 35.47MB Kongsberg multibeam vendor format
0163_20120406_181207_melville.all.mb58.gz 28.08MB Kongsberg multibeam vendor format
0164_20120406_184214_melville.all.mb58.gz 25.45MB Kongsberg multibeam vendor format
0165_20120406_191213_melville.all.mb58.gz 25.71MB Kongsberg multibeam vendor format
0166_20120406_194212_melville.all.mb58.gz 25.25MB Kongsberg multibeam vendor format
0167_20120406_201211_melville.all.mb58.gz 25.42MB Kongsberg multibeam vendor format
0168_20120406_204222_melville.all.mb58.gz 25.14MB Kongsberg multibeam vendor format
0169_20120406_211203_melville.all.mb58.gz 25.89MB Kongsberg multibeam vendor format
0170_20120406_214210_melville.all.mb58.gz 25.69MB Kongsberg multibeam vendor format
0171_20120406_221203_melville.all.mb58.gz 25.47MB Kongsberg multibeam vendor format
0172_20120406_224204_melville.all.mb58.gz 26.10MB Kongsberg multibeam vendor format
0173_20120406_231209_melville.all.mb58.gz 26.25MB Kongsberg multibeam vendor format
0174_20120406_234204_melville.all.mb58.gz 26.12MB Kongsberg multibeam vendor format
0175_20120407_001211_melville.all.mb58.gz 26.31MB Kongsberg multibeam vendor format
0176_20120407_004222_melville.all.mb58.gz 26.79MB Kongsberg multibeam vendor format
0177_20120407_011213_melville.all.mb58.gz 26.14MB Kongsberg multibeam vendor format
0178_20120407_014205_melville.all.mb58.gz 27.07MB Kongsberg multibeam vendor format
0179_20120407_021214_melville.all.mb58.gz 26.91MB Kongsberg multibeam vendor format
0180_20120407_024221_melville.all.mb58.gz 25.98MB Kongsberg multibeam vendor format
0181_20120407_031208_melville.all.mb58.gz 32.18MB Kongsberg multibeam vendor format
0182_20120407_034205_melville.all.mb58.gz 28.86MB Kongsberg multibeam vendor format
0183_20120407_041235_melville.all.mb58.gz 26.36MB Kongsberg multibeam vendor format
0184_20120407_044222_melville.all.mb58.gz 26.18MB Kongsberg multibeam vendor format
0185_20120407_051214_melville.all.mb58.gz 26.66MB Kongsberg multibeam vendor format
0186_20120407_054217_melville.all.mb58.gz 26.43MB Kongsberg multibeam vendor format
0187_20120407_061209_melville.all.mb58.gz 26.11MB Kongsberg multibeam vendor format
0188_20120407_064226_melville.all.mb58.gz 26.08MB Kongsberg multibeam vendor format
0189_20120407_071216_melville.all.mb58.gz 26.38MB Kongsberg multibeam vendor format
0190_20120407_074204_melville.all.mb58.gz 26.79MB Kongsberg multibeam vendor format
0191_20120407_081223_melville.all.mb58.gz 26.06MB Kongsberg multibeam vendor format
0192_20120407_084202_melville.all.mb58.gz 14.46MB Kongsberg multibeam vendor format
0193_20120407_085837_melville.all.mb58.gz 21.59MB Kongsberg multibeam vendor format
0194_20120407_092837_melville.all.mb58.gz 21.53MB Kongsberg multibeam vendor format
0195_20120407_095831_melville.all.mb58.gz 5.87MB Kongsberg multibeam vendor format
0196_20120407_100720_melville.all.mb58.gz 1.76MB Kongsberg multibeam vendor format
0197_20120407_102503_melville.all.mb58.gz 21.16MB Kongsberg multibeam vendor format
0198_20120407_105501_melville.all.mb58.gz 32.60MB Kongsberg multibeam vendor format
0199_20120407_112500_melville.all.mb58.gz 50.24MB Kongsberg multibeam vendor format
0200_20120407_115500_melville.all.mb58.gz 60.27MB Kongsberg multibeam vendor format
0201_20120407_122501_melville.all.mb58.gz 53.46MB Kongsberg multibeam vendor format
0202_20120407_125502_melville.all.mb58.gz 37.50MB Kongsberg multibeam vendor format
0203_20120407_132459_melville.all.mb58.gz 37.88MB Kongsberg multibeam vendor format
0204_20120407_135500_melville.all.mb58.gz 58.85MB Kongsberg multibeam vendor format
0205_20120407_142501_melville.all.mb58.gz 59.89MB Kongsberg multibeam vendor format
0206_20120407_145500_melville.all.mb58.gz 54.54MB Kongsberg multibeam vendor format
0207_20120407_152501_melville.all.mb58.gz 32.81MB Kongsberg multibeam vendor format
0208_20120407_155509_melville.all.mb58.gz 31.44MB Kongsberg multibeam vendor format
0209_20120407_162508_melville.all.mb58.gz 44.92MB Kongsberg multibeam vendor format
0210_20120407_165503_melville.all.mb58.gz 32.95MB Kongsberg multibeam vendor format
0211_20120407_172511_melville.all.mb58.gz 27.59MB Kongsberg multibeam vendor format
0212_20120407_175501_melville.all.mb58.gz 27.90MB Kongsberg multibeam vendor format
0213_20120407_182517_melville.all.mb58.gz 27.89MB Kongsberg multibeam vendor format
0214_20120407_185510_melville.all.mb58.gz 28.10MB Kongsberg multibeam vendor format
0215_20120407_192509_melville.all.mb58.gz 27.79MB Kongsberg multibeam vendor format
0216_20120407_195514_melville.all.mb58.gz 27.75MB Kongsberg multibeam vendor format
0217_20120407_202519_melville.all.mb58.gz 27.55MB Kongsberg multibeam vendor format
0218_20120407_205507_melville.all.mb58.gz 27.40MB Kongsberg multibeam vendor format
0219_20120407_212500_melville.all.mb58.gz 27.76MB Kongsberg multibeam vendor format
0220_20120407_215459_melville.all.mb58.gz 28.15MB Kongsberg multibeam vendor format
0221_20120407_222514_melville.all.mb58.gz 27.82MB Kongsberg multibeam vendor format
0222_20120407_225515_melville.all.mb58.gz 27.68MB Kongsberg multibeam vendor format
0223_20120407_232513_melville.all.mb58.gz 27.65MB Kongsberg multibeam vendor format
0224_20120407_235511_melville.all.mb58.gz 27.67MB Kongsberg multibeam vendor format
0225_20120408_002516_melville.all.mb58.gz 27.47MB Kongsberg multibeam vendor format
0226_20120408_005517_melville.all.mb58.gz 27.26MB Kongsberg multibeam vendor format
0227_20120408_012501_melville.all.mb58.gz 27.78MB Kongsberg multibeam vendor format
0228_20120408_015510_melville.all.mb58.gz 27.34MB Kongsberg multibeam vendor format
0229_20120408_022459_melville.all.mb58.gz 27.60MB Kongsberg multibeam vendor format
0230_20120408_025500_melville.all.mb58.gz 27.65MB Kongsberg multibeam vendor format
0231_20120408_032511_melville.all.mb58.gz 27.02MB Kongsberg multibeam vendor format
0232_20120408_035503_melville.all.mb58.gz 27.34MB Kongsberg multibeam vendor format
0233_20120408_042506_melville.all.mb58.gz 27.80MB Kongsberg multibeam vendor format
0234_20120408_045512_melville.all.mb58.gz 27.63MB Kongsberg multibeam vendor format
0235_20120408_052510_melville.all.mb58.gz 27.93MB Kongsberg multibeam vendor format
0236_20120408_055505_melville.all.mb58.gz 27.98MB Kongsberg multibeam vendor format
0237_20120408_062510_melville.all.mb58.gz 36.85MB Kongsberg multibeam vendor format
0238_20120408_065458_melville.all.mb58.gz 33.49MB Kongsberg multibeam vendor format
0239_20120408_072501_melville.all.mb58.gz 27.37MB Kongsberg multibeam vendor format
0240_20120408_075505_melville.all.mb58.gz 27.61MB Kongsberg multibeam vendor format
0241_20120408_082511_melville.all.mb58.gz 27.87MB Kongsberg multibeam vendor format
0242_20120408_085511_melville.all.mb58.gz 28.06MB Kongsberg multibeam vendor format
0243_20120408_092515_melville.all.mb58.gz 28.09MB Kongsberg multibeam vendor format
0244_20120408_095509_melville.all.mb58.gz 28.74MB Kongsberg multibeam vendor format
0245_20120408_102500_melville.all.mb58.gz 28.43MB Kongsberg multibeam vendor format
0246_20120408_105506_melville.all.mb58.gz 33.04MB Kongsberg multibeam vendor format
0247_20120408_112501_melville.all.mb58.gz 59.28MB Kongsberg multibeam vendor format
0248_20120408_115501_melville.all.mb58.gz 45.68MB Kongsberg multibeam vendor format
0249_20120408_122501_melville.all.mb58.gz 28.57MB Kongsberg multibeam vendor format
0250_20120408_125513_melville.all.mb58.gz 28.22MB Kongsberg multibeam vendor format
0251_20120408_132459_melville.all.mb58.gz 28.40MB Kongsberg multibeam vendor format
0252_20120408_135501_melville.all.mb58.gz 28.55MB Kongsberg multibeam vendor format
0253_20120408_142511_melville.all.mb58.gz 28.31MB Kongsberg multibeam vendor format
0254_20120408_145506_melville.all.mb58.gz 28.30MB Kongsberg multibeam vendor format
0255_20120408_152508_melville.all.mb58.gz 28.58MB Kongsberg multibeam vendor format
0256_20120408_155505_melville.all.mb58.gz 28.89MB Kongsberg multibeam vendor format
0257_20120408_162512_melville.all.mb58.gz 28.74MB Kongsberg multibeam vendor format
0258_20120408_165500_melville.all.mb58.gz 28.92MB Kongsberg multibeam vendor format
0259_20120408_172507_melville.all.mb58.gz 28.65MB Kongsberg multibeam vendor format
0260_20120408_175459_melville.all.mb58.gz 28.33MB Kongsberg multibeam vendor format
0261_20120408_182458_melville.all.mb58.gz 28.37MB Kongsberg multibeam vendor format
0262_20120408_185504_melville.all.mb58.gz 28.63MB Kongsberg multibeam vendor format
0263_20120408_192512_melville.all.mb58.gz 28.54MB Kongsberg multibeam vendor format
0264_20120408_195510_melville.all.mb58.gz 28.71MB Kongsberg multibeam vendor format
0265_20120408_202506_melville.all.mb58.gz 29.93MB Kongsberg multibeam vendor format
0266_20120408_205500_melville.all.mb58.gz 37.66MB Kongsberg multibeam vendor format
0267_20120408_212502_melville.all.mb58.gz 39.31MB Kongsberg multibeam vendor format
0268_20120408_215504_melville.all.mb58.gz 37.10MB Kongsberg multibeam vendor format
0269_20120408_222504_melville.all.mb58.gz 31.07MB Kongsberg multibeam vendor format
0270_20120408_225509_melville.all.mb58.gz 33.17MB Kongsberg multibeam vendor format
0271_20120408_232502_melville.all.mb58.gz 37.23MB Kongsberg multibeam vendor format
0272_20120408_235508_melville.all.mb58.gz 38.76MB Kongsberg multibeam vendor format
0273_20120409_002459_melville.all.mb58.gz 33.44MB Kongsberg multibeam vendor format
0274_20120409_005504_melville.all.mb58.gz 36.48MB Kongsberg multibeam vendor format
0275_20120409_012501_melville.all.mb58.gz 38.82MB Kongsberg multibeam vendor format
0276_20120409_015504_melville.all.mb58.gz 39.53MB Kongsberg multibeam vendor format
0277_20120409_022503_melville.all.mb58.gz 40.76MB Kongsberg multibeam vendor format
0278_20120409_025500_melville.all.mb58.gz 35.08MB Kongsberg multibeam vendor format
0279_20120409_032509_melville.all.mb58.gz 37.60MB Kongsberg multibeam vendor format
0280_20120409_035458_melville.all.mb58.gz 39.77MB Kongsberg multibeam vendor format
0281_20120409_042505_melville.all.mb58.gz 38.45MB Kongsberg multibeam vendor format
0282_20120409_045459_melville.all.mb58.gz 38.17MB Kongsberg multibeam vendor format
0283_20120409_052501_melville.all.mb58.gz 36.10MB Kongsberg multibeam vendor format
0284_20120409_055503_melville.all.mb58.gz 33.14MB Kongsberg multibeam vendor format
0285_20120409_062507_melville.all.mb58.gz 35.30MB Kongsberg multibeam vendor format
0286_20120409_065511_melville.all.mb58.gz 33.68MB Kongsberg multibeam vendor format
0287_20120409_072505_melville.all.mb58.gz 29.92MB Kongsberg multibeam vendor format
0288_20120409_075457_melville.all.mb58.gz 29.95MB Kongsberg multibeam vendor format
0289_20120409_082508_melville.all.mb58.gz 29.53MB Kongsberg multibeam vendor format
0290_20120409_085506_melville.all.mb58.gz 34.85MB Kongsberg multibeam vendor format
0291_20120409_092513_melville.all.mb58.gz 29.09MB Kongsberg multibeam vendor format
0292_20120409_095514_melville.all.mb58.gz 29.31MB Kongsberg multibeam vendor format
0293_20120409_102500_melville.all.mb58.gz 29.17MB Kongsberg multibeam vendor format
0294_20120409_105510_melville.all.mb58.gz 28.31MB Kongsberg multibeam vendor format
0295_20120409_112509_melville.all.mb58.gz 28.68MB Kongsberg multibeam vendor format
0296_20120409_115507_melville.all.mb58.gz 28.75MB Kongsberg multibeam vendor format
0297_20120409_122512_melville.all.mb58.gz 28.45MB Kongsberg multibeam vendor format
0298_20120409_125506_melville.all.mb58.gz 28.67MB Kongsberg multibeam vendor format
0299_20120409_132509_melville.all.mb58.gz 28.45MB Kongsberg multibeam vendor format
0300_20120409_135501_melville.all.mb58.gz 28.67MB Kongsberg multibeam vendor format
0301_20120409_142505_melville.all.mb58.gz 28.62MB Kongsberg multibeam vendor format
0302_20120409_145513_melville.all.mb58.gz 28.18MB Kongsberg multibeam vendor format
0303_20120409_152458_melville.all.mb58.gz 28.41MB Kongsberg multibeam vendor format
0304_20120409_155501_melville.all.mb58.gz 28.02MB Kongsberg multibeam vendor format
0305_20120409_162512_melville.all.mb58.gz 28.05MB Kongsberg multibeam vendor format
0306_20120409_165501_melville.all.mb58.gz 28.00MB Kongsberg multibeam vendor format
0307_20120409_172458_melville.all.mb58.gz 28.16MB Kongsberg multibeam vendor format
0308_20120409_175500_melville.all.mb58.gz 28.25MB Kongsberg multibeam vendor format
0309_20120409_182459_melville.all.mb58.gz 28.30MB Kongsberg multibeam vendor format
0310_20120409_185513_melville.all.mb58.gz 27.60MB Kongsberg multibeam vendor format
0311_20120409_192505_melville.all.mb58.gz 27.92MB Kongsberg multibeam vendor format
0312_20120409_195513_melville.all.mb58.gz 27.55MB Kongsberg multibeam vendor format
0313_20120409_202457_melville.all.mb58.gz 27.91MB Kongsberg multibeam vendor format
0314_20120409_205517_melville.all.mb58.gz 27.29MB Kongsberg multibeam vendor format
0315_20120409_212458_melville.all.mb58.gz 27.75MB Kongsberg multibeam vendor format
0316_20120409_215503_melville.all.mb58.gz 27.97MB Kongsberg multibeam vendor format
0317_20120409_222511_melville.all.mb58.gz 27.84MB Kongsberg multibeam vendor format
0318_20120409_225512_melville.all.mb58.gz 27.51MB Kongsberg multibeam vendor format
0319_20120409_232502_melville.all.mb58.gz 28.15MB Kongsberg multibeam vendor format
0320_20120409_235504_melville.all.mb58.gz 27.87MB Kongsberg multibeam vendor format
0321_20120410_002509_melville.all.mb58.gz 27.68MB Kongsberg multibeam vendor format
0322_20120410_005513_melville.all.mb58.gz 27.72MB Kongsberg multibeam vendor format
0323_20120410_012504_melville.all.mb58.gz 27.99MB Kongsberg multibeam vendor format
0324_20120410_015503_melville.all.mb58.gz 28.09MB Kongsberg multibeam vendor format
0325_20120410_022512_melville.all.mb58.gz 27.76MB Kongsberg multibeam vendor format
0326_20120410_025459_melville.all.mb58.gz 28.09MB Kongsberg multibeam vendor format
0327_20120410_032502_melville.all.mb58.gz 27.90MB Kongsberg multibeam vendor format
0328_20120410_035504_melville.all.mb58.gz 27.95MB Kongsberg multibeam vendor format
0329_20120410_042513_melville.all.mb58.gz 27.61MB Kongsberg multibeam vendor format
0330_20120410_045504_melville.all.mb58.gz 27.93MB Kongsberg multibeam vendor format
0331_20120410_052510_melville.all.mb58.gz 27.90MB Kongsberg multibeam vendor format
0332_20120410_055503_melville.all.mb58.gz 28.00MB Kongsberg multibeam vendor format
0333_20120410_062505_melville.all.mb58.gz 27.69MB Kongsberg multibeam vendor format
0334_20120410_065458_melville.all.mb58.gz 27.66MB Kongsberg multibeam vendor format
0335_20120410_072456_melville.all.mb58.gz 28.01MB Kongsberg multibeam vendor format
0336_20120410_075510_melville.all.mb58.gz 27.67MB Kongsberg multibeam vendor format
0337_20120410_082502_melville.all.mb58.gz 27.61MB Kongsberg multibeam vendor format
0338_20120410_085506_melville.all.mb58.gz 27.51MB Kongsberg multibeam vendor format
0339_20120410_092500_melville.all.mb58.gz 27.55MB Kongsberg multibeam vendor format
0340_20120410_095513_melville.all.mb58.gz 27.38MB Kongsberg multibeam vendor format
0341_20120410_102512_melville.all.mb58.gz 27.51MB Kongsberg multibeam vendor format
0342_20120410_105505_melville.all.mb58.gz 27.76MB Kongsberg multibeam vendor format
0343_20120410_112508_melville.all.mb58.gz 27.24MB Kongsberg multibeam vendor format
0344_20120410_115506_melville.all.mb58.gz 27.57MB Kongsberg multibeam vendor format
0345_20120410_122506_melville.all.mb58.gz 27.58MB Kongsberg multibeam vendor format
0346_20120410_125503_melville.all.mb58.gz 27.67MB Kongsberg multibeam vendor format
0347_20120410_132504_melville.all.mb58.gz 27.74MB Kongsberg multibeam vendor format
0348_20120410_135503_melville.all.mb58.gz 27.65MB Kongsberg multibeam vendor format
0349_20120410_142459_melville.all.mb58.gz 28.03MB Kongsberg multibeam vendor format
0350_20120410_145503_melville.all.mb58.gz 27.85MB Kongsberg multibeam vendor format
0351_20120410_152510_melville.all.mb58.gz 27.63MB Kongsberg multibeam vendor format
0352_20120410_155505_melville.all.mb58.gz 27.75MB Kongsberg multibeam vendor format
0353_20120410_162503_melville.all.mb58.gz 27.81MB Kongsberg multibeam vendor format
0354_20120410_165512_melville.all.mb58.gz 27.48MB Kongsberg multibeam vendor format
0355_20120410_172505_melville.all.mb58.gz 27.78MB Kongsberg multibeam vendor format
0356_20120410_175509_melville.all.mb58.gz 27.58MB Kongsberg multibeam vendor format
0357_20120410_182508_melville.all.mb58.gz 27.33MB Kongsberg multibeam vendor format
0358_20120410_185456_melville.all.mb58.gz 27.74MB Kongsberg multibeam vendor format
0359_20120410_192457_melville.all.mb58.gz 27.89MB Kongsberg multibeam vendor format
0360_20120410_195510_melville.all.mb58.gz 27.63MB Kongsberg multibeam vendor format
0361_20120410_202511_melville.all.mb58.gz 27.18MB Kongsberg multibeam vendor format
0362_20120410_205505_melville.all.mb58.gz 27.22MB Kongsberg multibeam vendor format
0363_20120410_212503_melville.all.mb58.gz 27.33MB Kongsberg multibeam vendor format
0364_20120410_215501_melville.all.mb58.gz 27.14MB Kongsberg multibeam vendor format
0365_20120410_222457_melville.all.mb58.gz 27.37MB Kongsberg multibeam vendor format
0366_20120410_225507_melville.all.mb58.gz 27.48MB Kongsberg multibeam vendor format
0367_20120410_232458_melville.all.mb58.gz 27.68MB Kongsberg multibeam vendor format
0368_20120410_235512_melville.all.mb58.gz 27.28MB Kongsberg multibeam vendor format
0369_20120411_002509_melville.all.mb58.gz 27.14MB Kongsberg multibeam vendor format
0370_20120411_005509_melville.all.mb58.gz 27.41MB Kongsberg multibeam vendor format
0371_20120411_012513_melville.all.mb58.gz 27.11MB Kongsberg multibeam vendor format
0372_20120411_015511_melville.all.mb58.gz 27.40MB Kongsberg multibeam vendor format
0373_20120411_022509_melville.all.mb58.gz 27.22MB Kongsberg multibeam vendor format
0374_20120411_025457_melville.all.mb58.gz 27.71MB Kongsberg multibeam vendor format
0375_20120411_032505_melville.all.mb58.gz 27.28MB Kongsberg multibeam vendor format
0376_20120411_035507_melville.all.mb58.gz 27.73MB Kongsberg multibeam vendor format
0377_20120411_042504_melville.all.mb58.gz 27.58MB Kongsberg multibeam vendor format
0378_20120411_045502_melville.all.mb58.gz 27.92MB Kongsberg multibeam vendor format
0379_20120411_052508_melville.all.mb58.gz 27.14MB Kongsberg multibeam vendor format
0380_20120411_055500_melville.all.mb58.gz 27.59MB Kongsberg multibeam vendor format
0381_20120411_062458_melville.all.mb58.gz 27.58MB Kongsberg multibeam vendor format
0382_20120411_065507_melville.all.mb58.gz 27.39MB Kongsberg multibeam vendor format
0383_20120411_072506_melville.all.mb58.gz 26.97MB Kongsberg multibeam vendor format
0384_20120411_075505_melville.all.mb58.gz 27.28MB Kongsberg multibeam vendor format
0385_20120411_082502_melville.all.mb58.gz 27.63MB Kongsberg multibeam vendor format
0386_20120411_085501_melville.all.mb58.gz 27.20MB Kongsberg multibeam vendor format
0387_20120411_092456_melville.all.mb58.gz 27.96MB Kongsberg multibeam vendor format
0388_20120411_095455_melville.all.mb58.gz 36.05MB Kongsberg multibeam vendor format
0389_20120411_102504_melville.all.mb58.gz 32.40MB Kongsberg multibeam vendor format
0390_20120411_105500_melville.all.mb58.gz 28.70MB Kongsberg multibeam vendor format
0391_20120411_112502_melville.all.mb58.gz 28.70MB Kongsberg multibeam vendor format
0392_20120411_115507_melville.all.mb58.gz 30.12MB Kongsberg multibeam vendor format
0393_20120411_122455_melville.all.mb58.gz 37.95MB Kongsberg multibeam vendor format
0394_20120411_125458_melville.all.mb58.gz 37.77MB Kongsberg multibeam vendor format
0395_20120411_132503_melville.all.mb58.gz 23.14MB Kongsberg multibeam vendor format
0396_20120411_135607_melville.all.mb58.gz 28.74MB Kongsberg multibeam vendor format
0397_20120411_142557_melville.all.mb58.gz 28.63MB Kongsberg multibeam vendor format
0398_20120411_145605_melville.all.mb58.gz 27.99MB Kongsberg multibeam vendor format
0399_20120411_152558_melville.all.mb58.gz 27.86MB Kongsberg multibeam vendor format
0400_20120411_155611_melville.all.mb58.gz 27.51MB Kongsberg multibeam vendor format
0401_20120411_162614_melville.all.mb58.gz 27.24MB Kongsberg multibeam vendor format
0402_20120411_165614_melville.all.mb58.gz 27.23MB Kongsberg multibeam vendor format
0403_20120411_172619_melville.all.mb58.gz 26.48MB Kongsberg multibeam vendor format
0404_20120411_175607_melville.all.mb58.gz 27.10MB Kongsberg multibeam vendor format
0405_20120411_182603_melville.all.mb58.gz 27.07MB Kongsberg multibeam vendor format
0406_20120411_185609_melville.all.mb58.gz 27.01MB Kongsberg multibeam vendor format
0407_20120411_192617_melville.all.mb58.gz 27.11MB Kongsberg multibeam vendor format
0408_20120411_195602_melville.all.mb58.gz 27.47MB Kongsberg multibeam vendor format
0409_20120411_202616_melville.all.mb58.gz 26.57MB Kongsberg multibeam vendor format
0410_20120411_205605_melville.all.mb58.gz 27.45MB Kongsberg multibeam vendor format
0411_20120411_212613_melville.all.mb58.gz 26.96MB Kongsberg multibeam vendor format
0412_20120411_215600_melville.all.mb58.gz 26.94MB Kongsberg multibeam vendor format
0413_20120411_222557_melville.all.mb58.gz 27.38MB Kongsberg multibeam vendor format
0414_20120411_225606_melville.all.mb58.gz 27.03MB Kongsberg multibeam vendor format
0415_20120411_232558_melville.all.mb58.gz 27.24MB Kongsberg multibeam vendor format
0416_20120411_235605_melville.all.mb58.gz 27.69MB Kongsberg multibeam vendor format
0417_20120412_002559_melville.all.mb58.gz 28.45MB Kongsberg multibeam vendor format
0418_20120412_005611_melville.all.mb58.gz 28.65MB Kongsberg multibeam vendor format
0419_20120412_012609_melville.all.mb58.gz 28.84MB Kongsberg multibeam vendor format
0420_20120412_015607_melville.all.mb58.gz 29.20MB Kongsberg multibeam vendor format
0421_20120412_022602_melville.all.mb58.gz 29.46MB Kongsberg multibeam vendor format
0422_20120412_025602_melville.all.mb58.gz 29.47MB Kongsberg multibeam vendor format
0423_20120412_032613_melville.all.mb58.gz 29.55MB Kongsberg multibeam vendor format
0424_20120412_035606_melville.all.mb58.gz 33.56MB Kongsberg multibeam vendor format
0425_20120412_042557_melville.all.mb58.gz 29.39MB Kongsberg multibeam vendor format
0426_20120412_045601_melville.all.mb58.gz 29.04MB Kongsberg multibeam vendor format
0427_20120412_052605_melville.all.mb58.gz 28.81MB Kongsberg multibeam vendor format
0428_20120412_055603_melville.all.mb58.gz 28.68MB Kongsberg multibeam vendor format
0429_20120412_062611_melville.all.mb58.gz 28.15MB Kongsberg multibeam vendor format
0430_20120412_065602_melville.all.mb58.gz 28.48MB Kongsberg multibeam vendor format
0431_20120412_072612_melville.all.mb58.gz 28.27MB Kongsberg multibeam vendor format
0432_20120412_075602_melville.all.mb58.gz 28.64MB Kongsberg multibeam vendor format
0433_20120412_082607_melville.all.mb58.gz 28.63MB Kongsberg multibeam vendor format
0434_20120412_085608_melville.all.mb58.gz 28.67MB Kongsberg multibeam vendor format
0435_20120412_092607_melville.all.mb58.gz 28.54MB Kongsberg multibeam vendor format
0436_20120412_095603_melville.all.mb58.gz 28.64MB Kongsberg multibeam vendor format
0437_20120412_102613_melville.all.mb58.gz 28.18MB Kongsberg multibeam vendor format
0438_20120412_105601_melville.all.mb58.gz 28.26MB Kongsberg multibeam vendor format
0439_20120412_112558_melville.all.mb58.gz 28.29MB Kongsberg multibeam vendor format
0440_20120412_115602_melville.all.mb58.gz 28.45MB Kongsberg multibeam vendor format
0441_20120412_122611_melville.all.mb58.gz 28.38MB Kongsberg multibeam vendor format
0442_20120412_125611_melville.all.mb58.gz 28.22MB Kongsberg multibeam vendor format
0443_20120412_132602_melville.all.mb58.gz 29.05MB Kongsberg multibeam vendor format
0444_20120412_135600_melville.all.mb58.gz 34.61MB Kongsberg multibeam vendor format
0445_20120412_142604_melville.all.mb58.gz 29.69MB Kongsberg multibeam vendor format
0446_20120412_145600_melville.all.mb58.gz 35.02MB Kongsberg multibeam vendor format
0447_20120412_152559_melville.all.mb58.gz 36.63MB Kongsberg multibeam vendor format
0448_20120412_155604_melville.all.mb58.gz 29.73MB Kongsberg multibeam vendor format
0449_20120412_162607_melville.all.mb58.gz 28.51MB Kongsberg multibeam vendor format
0450_20120412_165557_melville.all.mb58.gz 28.55MB Kongsberg multibeam vendor format
0451_20120412_172602_melville.all.mb58.gz 29.07MB Kongsberg multibeam vendor format
0452_20120412_175556_melville.all.mb58.gz 29.03MB Kongsberg multibeam vendor format
0453_20120412_182558_melville.all.mb58.gz 29.20MB Kongsberg multibeam vendor format
0454_20120412_185556_melville.all.mb58.gz 29.03MB Kongsberg multibeam vendor format
0455_20120412_192557_melville.all.mb58.gz 29.17MB Kongsberg multibeam vendor format
0456_20120412_195558_melville.all.mb58.gz 28.60MB Kongsberg multibeam vendor format
0457_20120412_202607_melville.all.mb58.gz 28.37MB Kongsberg multibeam vendor format
0458_20120412_205601_melville.all.mb58.gz 28.33MB Kongsberg multibeam vendor format
0459_20120412_212557_melville.all.mb58.gz 28.27MB Kongsberg multibeam vendor format
0460_20120412_215604_melville.all.mb58.gz 28.09MB Kongsberg multibeam vendor format
0461_20120412_222556_melville.all.mb58.gz 28.53MB Kongsberg multibeam vendor format
0462_20120412_225601_melville.all.mb58.gz 28.52MB Kongsberg multibeam vendor format
0463_20120412_232603_melville.all.mb58.gz 28.71MB Kongsberg multibeam vendor format
0464_20120412_235611_melville.all.mb58.gz 28.38MB Kongsberg multibeam vendor format
0465_20120413_002606_melville.all.mb58.gz 28.30MB Kongsberg multibeam vendor format
0466_20120413_005606_melville.all.mb58.gz 28.37MB Kongsberg multibeam vendor format
0467_20120413_012611_melville.all.mb58.gz 28.37MB Kongsberg multibeam vendor format
0468_20120413_015559_melville.all.mb58.gz 29.04MB Kongsberg multibeam vendor format
0469_20120413_022608_melville.all.mb58.gz 31.33MB Kongsberg multibeam vendor format
0470_20120413_025603_melville.all.mb58.gz 39.89MB Kongsberg multibeam vendor format
0471_20120413_032558_melville.all.mb58.gz 42.42MB Kongsberg multibeam vendor format
0472_20120413_035555_melville.all.mb58.gz 42.69MB Kongsberg multibeam vendor format
0473_20120413_042557_melville.all.mb58.gz 47.53MB Kongsberg multibeam vendor format
0474_20120413_045600_melville.all.mb58.gz 53.36MB Kongsberg multibeam vendor format
0475_20120413_052559_melville.all.mb58.gz 55.22MB Kongsberg multibeam vendor format
0476_20120413_055600_melville.all.mb58.gz 52.77MB Kongsberg multibeam vendor format
0477_20120413_062602_melville.all.mb58.gz 52.45MB Kongsberg multibeam vendor format
0478_20120413_065559_melville.all.mb58.gz 48.79MB Kongsberg multibeam vendor format
0479_20120413_072558_melville.all.mb58.gz 47.00MB Kongsberg multibeam vendor format
0480_20120413_075559_melville.all.mb58.gz 68.43MB Kongsberg multibeam vendor format
0481_20120413_082557_melville.all.mb58.gz 114.70MB Kongsberg multibeam vendor format
0482_20120413_085558_melville.all.mb58.gz 100.35MB Kongsberg multibeam vendor format
0483_20120413_092557_melville.all.mb58.gz 86.40MB Kongsberg multibeam vendor format
0484_20120413_095558_melville.all.mb58.gz 79.77MB Kongsberg multibeam vendor format
0485_20120413_102559_melville.all.mb58.gz 72.54MB Kongsberg multibeam vendor format
0486_20120413_105558_melville.all.mb58.gz 77.31MB Kongsberg multibeam vendor format
0487_20120413_112558_melville.all.mb58.gz 70.62MB Kongsberg multibeam vendor format
0488_20120413_115557_melville.all.mb58.gz 86.66MB Kongsberg multibeam vendor format
0489_20120413_122558_melville.all.mb58.gz 74.46MB Kongsberg multibeam vendor format
0490_20120413_125558_melville.all.mb58.gz 60.39MB Kongsberg multibeam vendor format
0491_20120413_132557_melville.all.mb58.gz 65.98MB Kongsberg multibeam vendor format
0492_20120413_135602_melville.all.mb58.gz 54.34MB Kongsberg multibeam vendor format
0493_20120413_142600_melville.all.mb58.gz 45.04MB Kongsberg multibeam vendor format
0494_20120413_145558_melville.all.mb58.gz 39.78MB Kongsberg multibeam vendor format
0495_20120413_152557_melville.all.mb58.gz 30.08MB Kongsberg multibeam vendor format
0496_20120413_155613_melville.all.mb58.gz 28.42MB Kongsberg multibeam vendor format
0497_20120413_162612_melville.all.mb58.gz 28.45MB Kongsberg multibeam vendor format
0498_20120413_165605_melville.all.mb58.gz 29.05MB Kongsberg multibeam vendor format
0499_20120413_172601_melville.all.mb58.gz 29.49MB Kongsberg multibeam vendor format
0500_20120413_175604_melville.all.mb58.gz 29.51MB Kongsberg multibeam vendor format
0501_20120413_182604_melville.all.mb58.gz 29.63MB Kongsberg multibeam vendor format
0502_20120413_185601_melville.all.mb58.gz 30.93MB Kongsberg multibeam vendor format
0503_20120413_192601_melville.all.mb58.gz 36.06MB Kongsberg multibeam vendor format
0504_20120413_195601_melville.all.mb58.gz 32.04MB Kongsberg multibeam vendor format
0505_20120413_202606_melville.all.mb58.gz 29.44MB Kongsberg multibeam vendor format
0506_20120413_205605_melville.all.mb58.gz 29.33MB Kongsberg multibeam vendor format
0507_20120413_212607_melville.all.mb58.gz 29.07MB Kongsberg multibeam vendor format
0508_20120413_215601_melville.all.mb58.gz 28.96MB Kongsberg multibeam vendor format
0509_20120413_222601_melville.all.mb58.gz 29.54MB Kongsberg multibeam vendor format
0510_20120413_225605_melville.all.mb58.gz 33.26MB Kongsberg multibeam vendor format
0511_20120413_232601_melville.all.mb58.gz 31.02MB Kongsberg multibeam vendor format
0512_20120413_235600_melville.all.mb58.gz 29.16MB Kongsberg multibeam vendor format
0513_20120414_002613_melville.all.mb58.gz 28.37MB Kongsberg multibeam vendor format
0514_20120414_005559_melville.all.mb58.gz 29.01MB Kongsberg multibeam vendor format
0515_20120414_012603_melville.all.mb58.gz 28.57MB Kongsberg multibeam vendor format
0516_20120414_015605_melville.all.mb58.gz 28.94MB Kongsberg multibeam vendor format
0517_20120414_022602_melville.all.mb58.gz 28.76MB Kongsberg multibeam vendor format
0518_20120414_025604_melville.all.mb58.gz 28.41MB Kongsberg multibeam vendor format
0519_20120414_032601_melville.all.mb58.gz 28.40MB Kongsberg multibeam vendor format
0520_20120414_035558_melville.all.mb58.gz 28.55MB Kongsberg multibeam vendor format
0521_20120414_042557_melville.all.mb58.gz 28.99MB Kongsberg multibeam vendor format
0522_20120414_045600_melville.all.mb58.gz 28.74MB Kongsberg multibeam vendor format
0523_20120414_052602_melville.all.mb58.gz 28.12MB Kongsberg multibeam vendor format
0524_20120414_055559_melville.all.mb58.gz 27.96MB Kongsberg multibeam vendor format
0525_20120414_062606_melville.all.mb58.gz 27.98MB Kongsberg multibeam vendor format
0526_20120414_065559_melville.all.mb58.gz 28.60MB Kongsberg multibeam vendor format
0527_20120414_072613_melville.all.mb58.gz 28.24MB Kongsberg multibeam vendor format
0528_20120414_075610_melville.all.mb58.gz 28.16MB Kongsberg multibeam vendor format
0529_20120414_082614_melville.all.mb58.gz 27.87MB Kongsberg multibeam vendor format
0530_20120414_085557_melville.all.mb58.gz 27.88MB Kongsberg multibeam vendor format
0531_20120414_092617_melville.all.mb58.gz 27.05MB Kongsberg multibeam vendor format
0532_20120414_095604_melville.all.mb58.gz 27.93MB Kongsberg multibeam vendor format
0533_20120414_102600_melville.all.mb58.gz 28.82MB Kongsberg multibeam vendor format
0534_20120414_105608_melville.all.mb58.gz 27.85MB Kongsberg multibeam vendor format
0535_20120414_112613_melville.all.mb58.gz 27.92MB Kongsberg multibeam vendor format
0536_20120414_115615_melville.all.mb58.gz 27.95MB Kongsberg multibeam vendor format
0537_20120414_122612_melville.all.mb58.gz 27.73MB Kongsberg multibeam vendor format
0538_20120414_125559_melville.all.mb58.gz 27.88MB Kongsberg multibeam vendor format
0539_20120414_132611_melville.all.mb58.gz 27.57MB Kongsberg multibeam vendor format
0540_20120414_135557_melville.all.mb58.gz 27.58MB Kongsberg multibeam vendor format
0541_20120414_142600_melville.all.mb58.gz 27.88MB Kongsberg multibeam vendor format
0542_20120414_145608_melville.all.mb58.gz 27.67MB Kongsberg multibeam vendor format
0543_20120414_152607_melville.all.mb58.gz 27.76MB Kongsberg multibeam vendor format
0544_20120414_155606_melville.all.mb58.gz 27.84MB Kongsberg multibeam vendor format
0545_20120414_162602_melville.all.mb58.gz 27.57MB Kongsberg multibeam vendor format
0546_20120414_165600_melville.all.mb58.gz 27.21MB Kongsberg multibeam vendor format
0547_20120414_172608_melville.all.mb58.gz 27.20MB Kongsberg multibeam vendor format
0548_20120414_175606_melville.all.mb58.gz 27.20MB Kongsberg multibeam vendor format
0549_20120414_182611_melville.all.mb58.gz 27.38MB Kongsberg multibeam vendor format
0550_20120414_185608_melville.all.mb58.gz 27.72MB Kongsberg multibeam vendor format
0551_20120414_192616_melville.all.mb58.gz 27.21MB Kongsberg multibeam vendor format
0552_20120414_195600_melville.all.mb58.gz 27.82MB Kongsberg multibeam vendor format
0553_20120414_202559_melville.all.mb58.gz 27.33MB Kongsberg multibeam vendor format
0554_20120414_205613_melville.all.mb58.gz 27.47MB Kongsberg multibeam vendor format
0555_20120414_212559_melville.all.mb58.gz 27.65MB Kongsberg multibeam vendor format
0556_20120414_215616_melville.all.mb58.gz 27.56MB Kongsberg multibeam vendor format
0557_20120414_222609_melville.all.mb58.gz 27.93MB Kongsberg multibeam vendor format
0558_20120414_225605_melville.all.mb58.gz 29.05MB Kongsberg multibeam vendor format
0559_20120414_232603_melville.all.mb58.gz 28.65MB Kongsberg multibeam vendor format
0560_20120414_235606_melville.all.mb58.gz 28.12MB Kongsberg multibeam vendor format
0561_20120415_002605_melville.all.mb58.gz 27.71MB Kongsberg multibeam vendor format
0562_20120415_005608_melville.all.mb58.gz 27.16MB Kongsberg multibeam vendor format
0563_20120415_012610_melville.all.mb58.gz 27.75MB Kongsberg multibeam vendor format
0564_20120415_015610_melville.all.mb58.gz 27.39MB Kongsberg multibeam vendor format
0565_20120415_022614_melville.all.mb58.gz 26.93MB Kongsberg multibeam vendor format
0566_20120415_025557_melville.all.mb58.gz 27.29MB Kongsberg multibeam vendor format
0567_20120415_032609_melville.all.mb58.gz 26.98MB Kongsberg multibeam vendor format
0568_20120415_035603_melville.all.mb58.gz 26.95MB Kongsberg multibeam vendor format
0569_20120415_042610_melville.all.mb58.gz 26.64MB Kongsberg multibeam vendor format
0570_20120415_045605_melville.all.mb58.gz 27.30MB Kongsberg multibeam vendor format
0571_20120415_052604_melville.all.mb58.gz 27.32MB Kongsberg multibeam vendor format
0572_20120415_055603_melville.all.mb58.gz 27.21MB Kongsberg multibeam vendor format
0573_20120415_062614_melville.all.mb58.gz 35.45MB Kongsberg multibeam vendor format
0574_20120415_065608_melville.all.mb58.gz 38.28MB Kongsberg multibeam vendor format
0575_20120415_072605_melville.all.mb58.gz 39.08MB Kongsberg multibeam vendor format
0576_20120415_075608_melville.all.mb58.gz 37.19MB Kongsberg multibeam vendor format
0577_20120415_082559_melville.all.mb58.gz 33.84MB Kongsberg multibeam vendor format
0578_20120415_085608_melville.all.mb58.gz 36.14MB Kongsberg multibeam vendor format
0579_20120415_092607_melville.all.mb58.gz 42.72MB Kongsberg multibeam vendor format
0580_20120415_095557_melville.all.mb58.gz 44.91MB Kongsberg multibeam vendor format
0581_20120415_102558_melville.all.mb58.gz 43.55MB Kongsberg multibeam vendor format
0582_20120415_105603_melville.all.mb58.gz 43.77MB Kongsberg multibeam vendor format
0583_20120415_112558_melville.all.mb58.gz 44.29MB Kongsberg multibeam vendor format
0584_20120415_115602_melville.all.mb58.gz 42.97MB Kongsberg multibeam vendor format
0585_20120415_122604_melville.all.mb58.gz 39.39MB Kongsberg multibeam vendor format
0586_20120415_125557_melville.all.mb58.gz 42.67MB Kongsberg multibeam vendor format
0587_20120415_132606_melville.all.mb58.gz 40.81MB Kongsberg multibeam vendor format
0588_20120415_135557_melville.all.mb58.gz 39.41MB Kongsberg multibeam vendor format
0589_20120415_142558_melville.all.mb58.gz 38.84MB Kongsberg multibeam vendor format
0590_20120415_145605_melville.all.mb58.gz 37.52MB Kongsberg multibeam vendor format
0591_20120415_152605_melville.all.mb58.gz 36.26MB Kongsberg multibeam vendor format
0592_20120415_155605_melville.all.mb58.gz 36.29MB Kongsberg multibeam vendor format
0593_20120415_162606_melville.all.mb58.gz 38.33MB Kongsberg multibeam vendor format
0594_20120415_165605_melville.all.mb58.gz 38.52MB Kongsberg multibeam vendor format
0595_20120415_172600_melville.all.mb58.gz 37.92MB Kongsberg multibeam vendor format
0596_20120415_175558_melville.all.mb58.gz 38.92MB Kongsberg multibeam vendor format
0597_20120415_182605_melville.all.mb58.gz 40.74MB Kongsberg multibeam vendor format
0598_20120415_185605_melville.all.mb58.gz 39.28MB Kongsberg multibeam vendor format
0599_20120415_192606_melville.all.mb58.gz 37.23MB Kongsberg multibeam vendor format
0600_20120415_195602_melville.all.mb58.gz 34.08MB Kongsberg multibeam vendor format
0601_20120415_202606_melville.all.mb58.gz 38.69MB Kongsberg multibeam vendor format
0602_20120415_205557_melville.all.mb58.gz 39.23MB Kongsberg multibeam vendor format
0603_20120415_212601_melville.all.mb58.gz 38.67MB Kongsberg multibeam vendor format
0604_20120415_215557_melville.all.mb58.gz 37.97MB Kongsberg multibeam vendor format
0605_20120415_222557_melville.all.mb58.gz 37.86MB Kongsberg multibeam vendor format
0606_20120415_225601_melville.all.mb58.gz 38.22MB Kongsberg multibeam vendor format
0607_20120415_232605_melville.all.mb58.gz 38.70MB Kongsberg multibeam vendor format
0608_20120415_235557_melville.all.mb58.gz 38.48MB Kongsberg multibeam vendor format
0609_20120416_002608_melville.all.mb58.gz 37.59MB Kongsberg multibeam vendor format
0610_20120416_005557_melville.all.mb58.gz 41.05MB Kongsberg multibeam vendor format
0611_20120416_012558_melville.all.mb58.gz 39.20MB Kongsberg multibeam vendor format
0612_20120416_015604_melville.all.mb58.gz 40.38MB Kongsberg multibeam vendor format
0613_20120416_022600_melville.all.mb58.gz 40.86MB Kongsberg multibeam vendor format
0614_20120416_025602_melville.all.mb58.gz 40.51MB Kongsberg multibeam vendor format
0615_20120416_032559_melville.all.mb58.gz 41.33MB Kongsberg multibeam vendor format
0616_20120416_035602_melville.all.mb58.gz 41.99MB Kongsberg multibeam vendor format
0617_20120416_042601_melville.all.mb58.gz 42.35MB Kongsberg multibeam vendor format
0618_20120416_045603_melville.all.mb58.gz 42.63MB Kongsberg multibeam vendor format
0619_20120416_052603_melville.all.mb58.gz 43.00MB Kongsberg multibeam vendor format
0620_20120416_055603_melville.all.mb58.gz 45.06MB Kongsberg multibeam vendor format
0621_20120416_062600_melville.all.mb58.gz 47.41MB Kongsberg multibeam vendor format
0622_20120416_065559_melville.all.mb58.gz 48.87MB Kongsberg multibeam vendor format
0623_20120416_072602_melville.all.mb58.gz 49.67MB Kongsberg multibeam vendor format
0624_20120416_075600_melville.all.mb58.gz 51.14MB Kongsberg multibeam vendor format
0625_20120416_082557_melville.all.mb58.gz 51.89MB Kongsberg multibeam vendor format
0626_20120416_085601_melville.all.mb58.gz 53.65MB Kongsberg multibeam vendor format
0627_20120416_092557_melville.all.mb58.gz 55.33MB Kongsberg multibeam vendor format
0628_20120416_095557_melville.all.mb58.gz 55.62MB Kongsberg multibeam vendor format
0629_20120416_102557_melville.all.mb58.gz 57.66MB Kongsberg multibeam vendor format
0630_20120416_105600_melville.all.mb58.gz 59.24MB Kongsberg multibeam vendor format
0631_20120416_112600_melville.all.mb58.gz 57.09MB Kongsberg multibeam vendor format
0632_20120416_115559_melville.all.mb58.gz 59.08MB Kongsberg multibeam vendor format
0633_20120416_122558_melville.all.mb58.gz 62.39MB Kongsberg multibeam vendor format
0634_20120416_125559_melville.all.mb58.gz 62.99MB Kongsberg multibeam vendor format
0635_20120416_132556_melville.all.mb58.gz 63.99MB Kongsberg multibeam vendor format
0636_20120416_135558_melville.all.mb58.gz 64.48MB Kongsberg multibeam vendor format
0637_20120416_142558_melville.all.mb58.gz 64.78MB Kongsberg multibeam vendor format
0638_20120416_145559_melville.all.mb58.gz 65.52MB Kongsberg multibeam vendor format
0639_20120416_152557_melville.all.mb58.gz 66.11MB Kongsberg multibeam vendor format
0640_20120416_155557_melville.all.mb58.gz 68.24MB Kongsberg multibeam vendor format
0641_20120416_162558_melville.all.mb58.gz 70.03MB Kongsberg multibeam vendor format
0642_20120416_165558_melville.all.mb58.gz 71.17MB Kongsberg multibeam vendor format
0643_20120416_172558_melville.all.mb58.gz 71.37MB Kongsberg multibeam vendor format
0644_20120416_175557_melville.all.mb58.gz 71.55MB Kongsberg multibeam vendor format
0645_20120416_182557_melville.all.mb58.gz 68.76MB Kongsberg multibeam vendor format
0646_20120416_185558_melville.all.mb58.gz 72.28MB Kongsberg multibeam vendor format
0647_20120416_192556_melville.all.mb58.gz 72.87MB Kongsberg multibeam vendor format
0648_20120416_195557_melville.all.mb58.gz 73.57MB Kongsberg multibeam vendor format
0649_20120416_202557_melville.all.mb58.gz 74.91MB Kongsberg multibeam vendor format
0650_20120416_205556_melville.all.mb58.gz 77.33MB Kongsberg multibeam vendor format
0651_20120416_212556_melville.all.mb58.gz 80.28MB Kongsberg multibeam vendor format
0652_20120416_215556_melville.all.mb58.gz 83.52MB Kongsberg multibeam vendor format
0653_20120416_222557_melville.all.mb58.gz 87.96MB Kongsberg multibeam vendor format
0654_20120416_225557_melville.all.mb58.gz 95.13MB Kongsberg multibeam vendor format
0655_20120416_232556_melville.all.mb58.gz 103.10MB Kongsberg multibeam vendor format
0656_20120416_235556_melville.all.mb58.gz 116.61MB Kongsberg multibeam vendor format
0657_20120417_002556_melville.all.mb58.gz 122.16MB Kongsberg multibeam vendor format
0658_20120417_005556_melville.all.mb58.gz 125.29MB Kongsberg multibeam vendor format
0659_20120417_012556_melville.all.mb58.gz 109.93MB Kongsberg multibeam vendor format
0660_20120417_015610_melville.all.mb58.gz 17.03MB Kongsberg multibeam vendor format
0661_20120417_022444_melville.all.mb58.gz 21.91MB Kongsberg multibeam vendor format
0662_20120417_025450_melville.all.mb58.gz 21.56MB Kongsberg multibeam vendor format
0663_20120417_032443_melville.all.mb58.gz 21.73MB Kongsberg multibeam vendor format
0664_20120417_035444_melville.all.mb58.gz 21.72MB Kongsberg multibeam vendor format
0665_20120417_042454_melville.all.mb58.gz 21.68MB Kongsberg multibeam vendor format
0666_20120417_045449_melville.all.mb58.gz 21.62MB Kongsberg multibeam vendor format
0667_20120417_052450_melville.all.mb58.gz 21.71MB Kongsberg multibeam vendor format
0668_20120417_055456_melville.all.mb58.gz 21.63MB Kongsberg multibeam vendor format
0669_20120417_062456_melville.all.mb58.gz 21.47MB Kongsberg multibeam vendor format
0670_20120417_065444_melville.all.mb58.gz 21.60MB Kongsberg multibeam vendor format
0671_20120417_072443_melville.all.mb58.gz 21.79MB Kongsberg multibeam vendor format
0672_20120417_075456_melville.all.mb58.gz 21.65MB Kongsberg multibeam vendor format
0673_20120417_082450_melville.all.mb58.gz 21.64MB Kongsberg multibeam vendor format
0674_20120417_085452_melville.all.mb58.gz 21.65MB Kongsberg multibeam vendor format
0675_20120417_092456_melville.all.mb58.gz 21.63MB Kongsberg multibeam vendor format
0676_20120417_095451_melville.all.mb58.gz 21.63MB Kongsberg multibeam vendor format
0677_20120417_102449_melville.all.mb58.gz 21.62MB Kongsberg multibeam vendor format
0678_20120417_105450_melville.all.mb58.gz 21.62MB Kongsberg multibeam vendor format
0679_20120417_112452_melville.all.mb58.gz 21.68MB Kongsberg multibeam vendor format
0680_20120417_115457_melville.all.mb58.gz 21.47MB Kongsberg multibeam vendor format
0681_20120417_122446_melville.all.mb58.gz 21.75MB Kongsberg multibeam vendor format
0682_20120417_125455_melville.all.mb58.gz 14.73MB Kongsberg multibeam vendor format
0683_20120417_133512_melville.all.mb58.gz 20.72MB Kongsberg multibeam vendor format
0684_20120417_140608_melville.all.mb58.gz 8.35MB Kongsberg multibeam vendor format
0685_20120417_144248_melville.all.mb58.gz 22.29MB Kongsberg multibeam vendor format
0686_20120417_151236_melville.all.mb58.gz 22.35MB Kongsberg multibeam vendor format
0687_20120417_154229_melville.all.mb58.gz 17.17MB Kongsberg multibeam vendor format
0688_20120417_162833_melville.all.mb58.gz 22.59MB Kongsberg multibeam vendor format
0689_20120417_165843_melville.all.mb58.gz 22.46MB Kongsberg multibeam vendor format
0690_20120417_172845_melville.all.mb58.gz 22.31MB Kongsberg multibeam vendor format
0691_20120417_175837_melville.all.mb58.gz 22.50MB Kongsberg multibeam vendor format
0692_20120417_182844_melville.all.mb58.gz 7.61MB Kongsberg multibeam vendor format
0693_20120417_225648_melville.all.mb58.gz 265.7KB Kongsberg multibeam vendor format

Metadata Files: 2

Files File Size Description
MV1204_Multibeam.xml NGDC created ISO metadata
xbt_bag_info.tar.gz 1.7KB Additional cruise information

Ancillary Files: 1

Files File Size Description
xbt.tar.gz 265.2KB Expendable Bathythermograph (XBT) data